TimeCST,TemperatureF,Dew PointF,Humidity,Sea Level PressureIn,VisibilityMPH,Wind Direction,Wind SpeedMPH,Gust SpeedMPH,PrecipitationIn,Events,Conditions,WindDirDegrees,DateUTC
12:53 AM,30.9,28.0,89,30.07,10.0,ESE,5.8,-,0.01,,Overcast,120,2013-02-21 06:53:00
1:53 AM,30.9,28.9,92,30.05,10.0,East,5.8,-,0.00,,Overcast,100,2013-02-21 07:53:00
2:53 AM,30.9,28.0,89,30.01,10.0,East,5.8,-,N/A,,Overcast,100,2013-02-21 08:53:00
3:53 AM,30.9,28.0,89,29.99,9.0,ESE,3.5,-,0.00,,Overcast,110,2013-02-21 09:53:00
4:53 AM,30.9,28.9,92,29.97,9.0,Variable,4.6,-,0.00,,Overcast,0,2013-02-21 10:53:00
5:53 AM,32.0,28.9,88,29.96,7.0,ESE,5.8,-,0.04,,Overcast,110,2013-02-21 11:53:00
6:53 AM,32.0,28.0,85,29.91,10.0,East,8.1,-,0.01,,Overcast,100,2013-02-21 12:53:00
7:46 AM,32.0,28.4,87,29.81,1.8,ESE,9.2,-,0.03,,Overcast,110,2013-02-21 13:46:00
7:55 AM,32.0,30.2,93,29.81,3.0,ESE,8.1,18.4,0.00,,Overcast,110,2013-02-21 13:55:00
8:29 AM,32.0,30.2,93,29.81,2.0,Variable,4.6,-,0.10,,Overcast,0,2013-02-21 14:29:00
8:45 AM,32.0,30.2,93,29.82,1.5,Calm,Calm,-,0.14,,Overcast,0,2013-02-21 14:45:00
8:53 AM,32.0,30.9,96,29.83,0.8,Variable,4.6,-,0.31,,Overcast,0,2013-02-21 14:53:00
9:03 AM,32.0,30.2,93,29.80,3.0,Variable,4.6,-,0.09,,Overcast,0,2013-02-21 15:03:00
9:15 AM,32.0,30.2,93,29.77,1.8,Variable,3.5,-,0.11,,Overcast,0,2013-02-21 15:15:00
9:39 AM,32.0,30.2,93,29.81,0.8,Calm,Calm,-,0.39,,Overcast,0,2013-02-21 15:39:00
9:53 AM,33.1,30.9,92,29.82,2.5,Variable,3.5,-,0.49,,Overcast,0,2013-02-21 15:53:00
9:57 AM,33.8,32.0,93,29.78,3.0,East,4.6,-,0.00,,Overcast,100,2013-02-21 15:57:00
10:10 AM,33.8,32.0,93,29.77,1.8,Variable,3.5,-,0.02,Rain,Light Rain,0,2013-02-21 16:10:00
10:19 AM,32.0,32.0,100,29.80,1.5,Calm,Calm,-,0.09,,Overcast,0,2013-02-21 16:19:00
10:26 AM,33.8,32.0,93,29.80,2.5,Calm,Calm,-,0.11,,Overcast,0,2013-02-21 16:26:00
10:41 AM,33.8,32.0,93,29.79,3.0,Calm,Calm,-,0.12,Rain,Light Rain,0,2013-02-21 16:41:00
10:53 AM,33.1,32.0,96,29.81,3.0,East,3.5,-,0.12,Rain,Light Rain,100,2013-02-21 16:53:00
10:57 AM,33.8,32.0,93,29.77,2.5,East,4.6,-,0.01,Rain,Light Rain,100,2013-02-21 16:57:00
11:17 AM,33.8,32.0,93,29.78,1.5,Calm,Calm,-,0.08,Rain,Heavy Rain,0,2013-02-21 17:17:00
11:31 AM,33.8,32.0,93,29.79,2.0,Calm,Calm,-,0.15,Rain,Rain,0,2013-02-21 17:31:00
11:42 AM,33.8,32.0,93,29.79,3.0,Variable,4.6,-,0.15,Rain,Light Rain,0,2013-02-21 17:42:00
11:53 AM,33.1,32.0,96,29.83,2.0,Calm,Calm,-,0.16,Rain,Light Rain,0,2013-02-21 17:53:00
12:24 PM,33.8,32.0,93,29.76,1.5,ESE,3.5,-,0.02,Rain,Light Rain,110,2013-02-21 18:24:00
12:42 PM,33.8,33.8,100,29.75,1.2,East,3.5,-,0.04,Rain,Light Rain,100,2013-02-21 18:42:00
12:53 PM,33.1,32.0,96,29.78,1.8,Calm,Calm,-,0.04,Rain,Light Rain,0,2013-02-21 18:53:00
1:53 PM,33.1,33.1,100,29.76,1.2,Calm,Calm,-,0.02,,Overcast,0,2013-02-21 19:53:00
2:53 PM,34.0,33.1,96,29.73,2.0,East,4.6,-,0.02,,Overcast,100,2013-02-21 20:53:00
3:11 PM,35.6,33.8,93,29.71,3.0,Calm,Calm,-,N/A,,Overcast,0,2013-02-21 21:11:00
3:36 PM,35.6,33.8,93,29.71,10.0,Calm,Calm,-,N/A,,Overcast,0,2013-02-21 21:36:00
3:53 PM,35.1,34.0,96,29.74,6.0,Calm,Calm,-,N/A,,Overcast,0,2013-02-21 21:53:00
4:37 PM,35.6,33.8,93,29.73,10.0,Calm,Calm,-,N/A,,Overcast,0,2013-02-21 22:37:00
4:53 PM,35.1,34.0,96,29.77,5.0,Calm,Calm,-,N/A,,Overcast,0,2013-02-21 22:53:00
5:00 PM,35.6,33.8,93,29.74,3.0,Calm,Calm,-,N/A,,Overcast,0,2013-02-21 23:00:00
5:07 PM,33.8,33.8,100,29.73,1.8,Calm,Calm,-,N/A,,Overcast,0,2013-02-21 23:07:00
5:20 PM,33.8,33.8,100,29.75,2.0,Calm,Calm,-,N/A,,Overcast,0,2013-02-21 23:20:00
5:53 PM,34.0,34.0,100,29.81,2.0,Calm,Calm,-,N/A,,Overcast,0,2013-02-21 23:53:00
6:22 PM,33.8,33.8,100,29.80,4.0,Calm,Calm,-,N/A,,Overcast,0,2013-02-22 00:22:00
6:53 PM,34.0,34.0,100,29.84,4.0,Calm,Calm,-,N/A,,Overcast,0,2013-02-22 00:53:00
7:34 PM,33.8,33.8,100,29.81,2.0,SE,3.5,-,N/A,,Overcast,130,2013-02-22 01:34:00
7:44 PM,33.8,33.8,100,29.81,1.5,SE,4.6,-,N/A,,Overcast,140,2013-02-22 01:44:00
7:53 PM,34.0,34.0,100,29.84,1.0,Calm,Calm,-,N/A,,Overcast,0,2013-02-22 01:53:00
8:01 PM,33.8,33.8,100,29.81,0.8,Calm,Calm,-,N/A,,Mist,0,2013-02-22 02:01:00
8:20 PM,33.8,33.8,100,29.81,0.2,Calm,Calm,-,N/A,Fog,Fog,0,2013-02-22 02:20:00
8:53 PM,33.1,33.1,100,29.87,0.2,Calm,Calm,-,N/A,Fog,Fog,0,2013-02-22 02:53:00
9:04 PM,33.8,33.8,100,29.84,0.2,Calm,Calm,-,N/A,Fog,Fog,0,2013-02-22 03:04:00
9:53 PM,33.1,33.1,100,29.88,0.2,Calm,Calm,-,N/A,Fog,Fog,0,2013-02-22 03:53:00
10:21 PM,32.0,32.0,100,29.85,0.2,Calm,Calm,-,N/A,Fog,Fog,0,2013-02-22 04:21:00
10:53 PM,32.0,30.9,96,29.89,0.2,Variable,3.5,-,N/A,Fog,Fog,0,2013-02-22 04:53:00
11:43 PM,32.0,30.2,93,29.87,0.5,Variable,4.6,-,N/A,Fog,Fog,0,2013-02-22 05:43:00
11:53 PM,32.0,32.0,100,29.92,0.5,NW,5.8,-,N/A,Fog,Fog,310,2013-02-22 05:53:00